Regional Weather Roundup
Issued by NWS

Home | Current Version | Previous Version | Text Only | Print | Product List | Glossary On
Versions: 1 2 3 4 5 6 7 8 9 10 11 12 13 14 15 16 17 18 19 20 21 22 23 24 25 26 27 28 29 30 31 32 33 34 35 36 37 38 39 40 41 42 43 44 45 46 47 48 49 50
000
ASUS43 KOAX 022310
RWRNE

WEATHER ROUNDUP FOR NEBRASKA
NATIONAL WEATHER SERVICE OMAHA NE
600 PM CDT THU JUL 02 2015

NOTES: SATELLITE DATA IS BEING USED TO AUGMENT CLOUD COVER ABOVE
       12000 FEET.
       "FAIR" INDICATES FEW OR NO CLOUDS BELOW 12,000 FEET WITH NO
       SIGNIFICANT WEATHER AND/OR OBSTRUCTIONS TO VISIBILITY.

  * THESE STATIONS DO NOT REPORT WEATHER SUCH AS RAIN...SNOW OR FOG.

NEZ001>004-019>022-054>056-030000-
NEBRASKA PANHANDLE

CITY           SKY/WX    TMP DP  RH WIND       PRES   REMARKS
SCOTTSBLUFF    PTSUNNY   84  55  36 NE15      30.09F
ALLIANCE       MOSUNNY   79  59  50 NE8       30.09F
CHADRON        PTSUNNY   77  60  55 E7        30.06F
KIMBALL          N/A    N/A N/A N/A MISG        N/A
SIDNEY         SUNNY     82  55  39 NE10      30.12F
$$

NEZ057>060-069>072-079>082-030000-
SOUTHWEST NEBRASKA

CITY           SKY/WX    TMP DP  RH WIND       PRES   REMARKS
NORTH PLATTE   MOSUNNY   84  58  40 N12G18    30.00F
IMPERIAL       SUNNY     86  54  33 N10       30.04F
LEXINGTON      SUNNY     84  59  42 N16       29.97S
MCCOOK         MOSUNNY   88  57  34 N14       29.98F
OGALLALA       SUNNY     81  59  47 N13       30.05F
$$

NEZ005>010-023>029-035>040-094-030000-
NORTH CENTRAL NEBRASKA

CITY           SKY/WX    TMP DP  RH WIND       PRES   REMARKS
VALENTINE      PTSUNNY   79  58  48 N12G21    30.00F
AINSWORTH      MOSUNNY   79  59  49 N13G20    30.01S
BROKEN BOW     SUNNY     82  58  43 N16G25    29.97S
O`NEILL        MOSUNNY   74  66  75 NE8       29.98S
ORD            SUNNY     81  58  45 N17G24    29.94R
THEDFORD       MOSUNNY   80  58  46 N10G16    30.03S
$$

NEZ041-046>049-061>064-073>077-083>087-030000-
SOUTH CENTRAL NEBRASKA

CITY           SKY/WX    TMP DP  RH WIND       PRES   REMARKS
GRAND ISLAND   SUNNY     82  68  62 N8        29.91F
AURORA         MOSUNNY   79  62  55 CALM      29.91R
HASTINGS       MOSUNNY   78  68  71 SE5       29.91S
HEBRON         TSTM      80  67  63 NW8       29.91R
HOLDREGE       MOSUNNY   81  63  53 NW7       29.96F
KEARNEY *      MOSUNNY   84  57  39 NW13G20   29.93F
YORK           CLOUDY    75  70  83 E14       29.90F
$$

NEZ011>018-030>034-042>045-030000-
NORTHEAST NEBRASKA

CITY           SKY/WX    TMP DP  RH WIND       PRES   REMARKS
NORFOLK        LGT RAIN  66  64  93 E7        29.97R FOG
ALBION         PTSUNNY   70  64  80 NE10      29.96R
BLAIR          CLOUDY    67  63  85 E7        29.95F FOG
COLUMBUS *     CLOUDY    70  63  78 E13       29.94S
FREMONT        CLOUDY    69  64  85 E10       29.96R HAZE
TEKAMAH        CLOUDY    71  63  75 SE6       29.96S
WAYNE          CLOUDY    67  63  89 E8        29.98S
$$

NEZ050>053-065>068-078-088>093-030000-
SOUTHEAST NEBRASKA

CITY           SKY/WX    TMP DP  RH WIND       PRES   REMARKS
LINCOLN        CLOUDY    73  67  81 E15       29.92S
OMAHA EPPLEY   CLOUDY    70  64  81 E7        29.95F HAZE
BEATRICE       PTSUNNY   73  68  84 E7        29.91S
FALLS CITY     CLOUDY    70  68  93 SE10      29.92F
NEBRASKA CITY  CLOUDY    69  67  94 E8        29.94F FOG
PLATTSMOUTH    CLOUDY    69  64  83 E7        29.94F
$$

NEZ044-045-051>053-067-030000-
OMAHA AREA

CITY           SKY/WX    TMP DP  RH WIND       PRES   REMARKS
OMAHA EPPLEY   CLOUDY    70  64  81 E7        29.95F HAZE
BLAIR          CLOUDY    67  63  85 E7        29.95F FOG
FREMONT        CLOUDY    69  64  85 E10       29.96R HAZE
MILLARD        CLOUDY    70  65  84 E6        29.94F HAZE
OFFUTT AFB     MOSUNNY   70  64  83 E7        29.93F
PLATTSMOUTH    CLOUDY    69  64  83 E7        29.94F
WAHOO          CLOUDY    70  65  85 E12       29.94S
$$


USA.gov is the U.S. government's official web portal to all federal, state and local government web resources and services.